{"data":{"norad_id":66739,"epoch":"2026-05-25T03:51:56.097216Z","epoch_age_seconds":65058,"freshness":"FRESH","line1":"1 66739U 25276CB  26145.16106594  .00005428  00000+0  25429-3 0  9996","line2":"2 66739  97.4248 219.3389 0003680  62.5940 297.5669 15.20115741 26936","mean_motion":15.20115741,"eccentricity":0.000368,"inclination_deg":97.4248,"raan_deg":219.3389,"arg_perigee_deg":62.594,"mean_anomaly_deg":297.5669,"bstar":0.00025429,"rev_number":2693,"period_min":94.729628880279,"perigee_km":502.95800528278,"apogee_km":508.02435562359,"semimajor_km":6883.6281804532,"source":"CELESTRAK","updated_at":"2026-05-25T13:38:13.374808Z"}}